Content
SEND FEEDBACK

Daily
Averages
Monthly
Summary
Canada

RICHMOND NATURE PARK, BRITISH COLUMBIA


Home > North America > Canada > British Columbia
Elevation: 10 feet     Latitude: 49 10N     Longitude: 123 05W

WEATHER
 
SELECT A DAY
Number of Records: 194,309;   Date Range: 1/1/95 - 7/20/14
 
SHARE

PRINT THIS DATA

[ ← Previous Day ]
WEATHER ALMANAC - APRIL 10, 2013
[ Next Day → ]
[ °C ]   °F
Weather ElementAverageHighLow
Temperature50.4 °F55.4 °F (3:00 pm)46.4 °F (1:00 am)
Dewpoint34.5 °F48.2 °F (11:00 am) (7:00 pm)
Humidity79.9 %93 % (1:00 am)60 % (5:00 pm)
Wind Speed15.3 mph28.8 mph (11:39 am)
Wind Gust38 mph (11:39 am)
Weather ElementAverage
Visibility16.1 mi
Wind DirectionSSW (186 °)

Weather ElementTotal
Precipitation---
Heating Degree Days14.1 (Base 65)
Growing Degree Days0.9 (Base 50)
Averaged from 35 records on April 10, 2013
WEATHER CONDITIONS BREAKOUT
WIND DIRECTION BREAKOUT
WEATHER BY HOUR - APRIL 10, 2013
[ °C ]   °F
Local TimeTemperatureDewpointHumidityBarometerVisibilityWind DirectionWind SpeedGust SpeedPrecipitationEventsConditions
1:00 AM46.4 °F44.6 °F93 %30.12 in4.0 miEast (80°)11.5 mphRainLight Rain
2:00 AM46.4 °F44.6 °F93 %30.09 in4.0 miEast (80°)13.8 mphRainLight Rain
2:40 AM46.4 °F0.0 °F3.0 miEast (80°)12.7 mphRainLight Rain
3:00 AM46.4 °F44.6 °F93 %30.05 in3.0 miEast (90°)13.8 mphRainLight Rain
4:00 AM46.4 °F44.6 °F93 %30.03 in3.0 miENE (70°)13.8 mphRainLight Rain
5:00 AM47.0 °F45.0 °F89 %29.96 in7.0 miEast (90°)16.1 mphRainLight Rain
5:00 AM46.4 °F44.6 °F93 %29.96 in8.0 miEast (90°)17.3 mphRainLight Rain
5:52 AM48.2 °F0.0 °F4.0 miESE (120°)16.1 mphRainLight Rain
6:00 AM48.2 °F46.4 °F93 %29.90 in4.0 miESE (110°)17.3 mphRainLight Rain
6:03 AM48.2 °F0.0 °F4.0 miESE (110°)20.7 mphRainRain
7:00 AM48.2 °F46.4 °F93 %29.88 in4.0 miSE (140°)15.0 mph21.9 mphRainRain
7:35 AM48.2 °F0.0 °F8.0 miSSE (160°)19.6 mph27.6 mphRainLight Rain
8:00 AM50.0 °F46.4 °F87 %29.86 in8.0 miSSE (160°)21.9 mph27.6 mphRainLight Rain
9:00 AM50.0 °F46.4 °F87 %29.85 in8.0 miSSE (160°)17.3 mphRainLight Rain
10:00 AM50.0 °F46.4 °F87 %29.86 in10.0 miSSE (160°)6.9 mphRainLight Rain
10:39 AM51.8 °F0.0 °F15.0 miSSW (210°)9.2 mphRainLight Rain
11:00 AM51.8 °F48.2 °F88 %29.89 in15.0 miWSW (240°)12.7 mph20.7 mphRainLight Rain
11:00 AM51.0 °F47.0 °F83 %29.89 in15.0 miSW (230°)10.4 mphRainLight Rain
11:39 AM50.0 °F0.0 °F15.0 miWest (280°)28.8 mph38.0 mphMostly Cloudy
12:00 PM53.6 °F48.2 °F82 %29.94 in15.0 miWNW (300°)24.2 mph34.5 mphScattered Clouds
1:00 PM51.8 °F44.6 °F76 %29.97 in20.0 miWest (270°)27.6 mph38.0 mphPartly Cloudy
2:00 PM53.6 °F44.6 °F72 %30.01 in20.0 miWest (270°)28.8 mph35.7 mphPartly Cloudy
3:00 PM55.4 °F44.6 °F67 %30.05 in20.0 miWest (280°)25.3 mph32.2 mphPartly Cloudy
4:00 PM53.6 °F44.6 °F72 %30.06 in20.0 miWest (270°)24.2 mph29.9 mphPartly Cloudy
5:00 PM54.0 °F44.0 °F60 %30.08 in28.0 miWest (270°)20.7 mphPartly Cloudy
5:00 PM53.6 °F44.6 °F72 %30.08 in30.0 miWest (260°)18.4 mph25.3 mphPartly Cloudy
6:00 PM53.6 °F41.0 °F62 %30.11 in30.0 miWSW (250°)18.4 mph24.2 mphScattered Clouds
7:00 PM51.8 °F42.8 °F71 %30.13 in30.0 miSSW (200°)12.7 mph21.9 mphMostly Cloudy
7:09 PM51.8 °F0.0 °F30.0 miSSW (200°)13.8 mph20.7 mphRainLight Rain Showers
8:00 PM53.6 °F44.6 °F72 %30.14 in30.0 miSSW (210°)5.8 mphRainLight Rain Showers
8:46 PM51.8 °F0.0 °F30.0 miWNW (290°)2.3 mphMostly Cloudy
9:00 PM51.8 °F42.8 °F71 %30.15 in30.0 miSSW (210°)4.6 mphMostly Cloudy
10:00 PM51.8 °F44.6 °F76 %30.17 in30.0 miCalmOvercast
11:00 PM51.0 °F41.0 °F60 %30.18 in28.0 miWest (280°)6.9 mphPartly Cloudy
11:00 PM50.0 °F41.0 °F71 %30.18 in30.0 miWNW (290°)6.9 mphMostly Cloudy
Hourly data recorded from CYVR, located miles away from Richmond Nature Park, British Columbia







STORIES FROM OUR PARTNERS